Overview Statistics Trail Chart Weather Telemetry Raw packets
 

This is the latest recevied weather packets stored in our database for station/object K0APR. If no packets are shown the sender has not sent any weather packets the latest 10 day(s).

<< 77 78 79 80 81 82 83 >>
Time Temp. Humidity Pressure Rain* Wind** Luminosity Snow
1788117596 31.11° C 72% 1007.4 hPa 0 mm - 565 W/m² -
1788117295 31.11° C 72% 1007.4 hPa 0 mm - 548 W/m² -
1788116991 31.11° C 71% 1007 hPa 0 mm - 567 W/m² -
1788116687 30.56° C 73% 1007.4 hPa 0 mm - 560 W/m² -
1788116385 30.56° C 73% 1007.4 hPa 0 mm - 565 W/m² -
1788116081 30.56° C 74% 1007.4 hPa 0 mm - 566 W/m² -
1788115776 30° C 74% 1007.4 hPa 0 mm - 578 W/m² -
1788115475 30° C 74% 1007.4 hPa 0 mm - 604 W/m² -
1788115170 30° C 75% 1007.7 hPa 0 mm - 337 W/m² -
1788114870 29.44° C 76% 1007.7 hPa 0 mm - 600 W/m² -
1788114566 30° C 75% 1007.7 hPa 0 mm - 592 W/m² -
1788114261 29.44° C 75% 1007.7 hPa 0 mm - 577 W/m² -
1788113958 29.44° C 76% 1007.7 hPa 0 mm - 592 W/m² -
1788113653 28.89° C 77% 1007.7 hPa 0 mm - 600 W/m² -
1788113353 28.89° C 78% 1007.7 hPa 0 mm - 613 W/m² -
1788113067 28.33° C 78% 1007.7 hPa 0 mm - 535 W/m² -
1788112752 28.33° C 78% 1008.1 hPa 0 mm - 181 W/m² -
1788112452 28.33° C 79% 1007.7 hPa 0 mm - 574 W/m² -
1788112147 28.33° C 79% 1008.1 hPa 0 mm - 572 W/m² -
1788111842 27.78° C 79% 1007.7 hPa 0 mm - 561 W/m² -
1788111537 27.78° C 79% 1008.1 hPa 0 mm - 344 W/m² -
1788111232 27.22° C 81% 1008.1 hPa 0 mm - 581 W/m² -
1788110929 27.22° C 81% 1008.4 hPa 0 mm - 596 W/m² -
1788110625 26.67° C 82% 1008.4 hPa 0 mm - 545 W/m² -
1788110320 26.67° C 82% 1008.4 hPa 0 mm - 545 W/m² -

* Rain latest hour (hover to see other rain measurements)
** Current wind speed in m/s (hover to see current wind gust speed)